Starlink 31722

operational
NORAD ID: 59549 Int'l Des: 2024-074 Owner: SPXS Country: US Constellation: starlink
LEOCIRCULAR

Starlink 31722について

説明を読み込み中...

リアルタイム位置

3D地球を読み込み中...

次回通過

高度履歴

Altitude vs Time

uPlot chart will show altitude changes over time

軌道要素

1 59549U 24074R 25350.28619759 .00004654 00000-0 17857-3 0 9991
2 59549 43.0026 94.1269 0000980 257.8165 102.2577 15.27577182 93260
Epoch: Dec 16, 2025 • Age: 15 hours

現在のステータス

高度 494.2 km
速度 7.62 km/s
衛星直下点 -39.23°S, 29.83°W
打ち上げ日 Apr 18, 2024
運用期間 1.6 years
タイプ internet

技術仕様

分類 Payload
質量 730.00 kg
乾燥質量 700.00 kg
総質量 730.00 kg
長さ 0.30 m
直径 4.10 m
スパン 29.00 m
形状 Box + pan
製造者 SPXS
バスタイプ Starlink V2M
フェーズステータス In Orbit
所有者/国 SPXS/US

大規模コンステレーション

Loading constellations...